Theta_e
307 308 308 308 308 308 308 308 308 308 308 308 309 310 311 312 312 316 319 321 320 319 318 318 318 320 318 321 319 331 340 341 340 340 347 344 345 341 340 342 339 339 339 338 336
307 308 308 309 309 309 310 309 309 309 310 310 311 311 311 312 317 318 320 322 321 319 319 318 319 319 322 321 323 335 339 343 340 341 348 345 344 343 342 341 341 338 336 334 332
307 308 308 309 309 310 310 310 310 311 311 311 311 311 311 314 322 325 320 322 323 320 319 318 318 321 330 337 341 343 342 344 345 345 344 344 343 339 340 342 340 339 335 332 329
308 309 309 309 310 310 310 310 311 311 311 311 311 312 314 320 321 322 319 322 322 320 318 318 322 337 339 344 342 345 343 344 345 343 343 342 340 340 340 339 335 333 331 329 328
309 310 309 309 310 310 311 311 311 312 312 312 312 313 318 321 324 321 317 321 320 318 318 327 335 341 344 343 343 346 343 342 341 340 340 339 340 340 340 336 333 331 330 327 326
309 310 310 310 310 311 311 311 312 312 312 312 313 315 318 323 322 320 316 317 318 317 319 323 337 339 343 344 345 342 342 341 340 340 339 340 339 336 336 333 332 330 329 327 326
309 311 310 309 310 310 310 311 311 312 312 312 313 316 319 321 322 324 317 320 320 320 330 334 334 338 342 343 341 342 346 343 340 338 338 336 339 339 335 333 333 330 328 326 325
310 311 311 310 310 310 311 312 312 312 312 312 313 320 323 320 323 325 321 318 320 319 319 329 334 338 343 340 342 344 344 349 342 340 338 338 343 336 333 333 332 330 327 326 325
310 311 312 311 311 311 312 313 314 314 314 314 319 321 324 323 323 323 322 321 319 318 317 320 332 339 338 343 346 342 347 349 345 338 338 339 340 336 334 333 330 329 328 327 325
311 312 312 312 312 312 312 313 319 319 319 321 321 324 324 324 323 320 322 322 320 319 319 320 322 338 335 334 332 342 344 345 345 340 340 339 338 333 334 334 332 330 328 327 325
312 312 312 312 312 312 312 317 323 323 322 326 325 324 322 323 322 318 320 320 320 321 323 321 323 325 337 335 325 333 342 345 340 337 341 337 335 336 335 333 332 330 328 327 325
313 313 313 313 312 313 315 323 319 317 324 322 323 323 322 323 322 320 320 322 322 323 322 323 325 324 324 330 334 339 342 342 337 334 337 336 337 335 334 334 332 331 329 328 327
313 313 313 313 314 317 318 319 320 316 325 325 324 326 325 325 324 324 321 320 322 323 322 324 325 330 335 337 339 339 341 341 341 335 335 337 339 339 337 334 332 331 330 328 328
314 313 313 313 317 314 318 315 314 315 325 325 326 323 323 323 323 320 319 322 324 327 329 330 326 334 336 331 330 331 333 337 337 339 342 337 343 339 337 337 335 333 331 329 329
313 312 312 314 314 315 316 314 320 324 326 325 330 321 319 323 322 326 324 329 330 328 329 330 328 329 330 327 330 338 335 336 336 338 339 341 343 340 335 336 336 335 332 331 327
311 311 312 314 314 316 313 322 325 332 329 330 329 322 323 329 330 329 331 328 327 331 331 331 329 328 326 332 334 334 333 333 332 336 342 339 341 340 338 335 334 333 331 330 326
310 310 311 312 316 313 317 325 333 336 330 333 329 327 332 333 332 332 332 333 332 334 335 332 330 329 331 334 331 331 338 339 340 339 339 335 338 338 333 333 332 331 330 327 323
310 310 311 311 312 313 323 333 337 332 334 332 329 329 332 332 333 332 334 333 330 330 332 334 334 328 326 329 332 334 327 331 333 333 335 335 340 337 333 333 331 330 328 321 317
313 314 317 321 317 321 330 334 335 334 333 332 330 333 333 332 334 334 332 333 332 329 335 332 332 327 325 325 326 327 330 326 335 335 337 337 335 335 333 331 330 328 325 320 316
320 321 323 319 323 322 330 328 331 328 330 329 332 331 336 334 336 334 331 327 329 329 329 332 333 329 328 325 325 327 324 329 331 337 336 336 335 335 334 333 330 329 325 317 312
324 329 323 322 320 328 329 327 327 325 327 330 329 330 332 335 333 331 330 328 329 328 329 327 328 329 327 328 327 326 327 330 331 332 334 334 336 329 331 331 327 329 324 315 313
322 331 323 320 327 321 327 325 322 326 326 331 330 330 332 331 331 330 332 331 329 327 328 328 333 330 328 324 324 325 327 327 326 333 332 332 334 325 328 330 330 327 318 314 312
330 328 324 319 328 330 326 325 327 329 329 330 331 330 329 330 333 330 330 327 329 332 331 328 330 331 329 326 326 327 326 327 329 330 334 326 329 325 325 324 322 320 317 313 311
327 328 327 324 322 328 328 327 330 327 326 327 329 329 331 331 330 331 330 329 329 331 328 331 328 330 330 328 327 327 326 325 326 323 327 327 326 326 324 323 318 316 314 312 312
327 331 327 329 328 326 329 329 331 332 327 326 328 327 331 335 330 329 330 330 329 329 327 330 328 326 325 324 324 323 323 323 326 327 326 328 326 324 322 320 318 315 313 313 311
334 334 327 329 325 329 329 332 331 330 329 326 326 325 327 328 325 326 326 329 334 331 330 329 328 327 328 326 326 328 327 326 323 322 322 323 322 319 316 314 315 314 314 313 313
324 326 331 325 331 331 331 331 329 326 326 326 326 327 328 327 327 329 329 330 330 331 333 332 331 331 330 330 330 332 327 324 323 323 323 324 323 319 319 316 315 315 314 313 312
Wind_Speed
10 8 8 9 8 8 7 7 7 8 9 10 11 13 16 19 19 5 3 5 6 13 11 13 6 3 2 2 3 2 4 5 3 5 8 9 4 6 8 10 8 8 11 11 13
10 11 9 8 7 7 7 7 7 7 8 10 12 14 17 19 7 3 3 8 9 11 9 8 5 5 3 3 3 4 4 4 2 8 11 10 9 8 6 11 9 11 17 17 17
11 12 10 7 6 6 6 6 7 7 8 11 12 14 16 12 0 1 2 9 9 8 4 4 10 2 4 4 6 5 4 9 12 17 15 16 16 7 11 8 7 8 12 14 17
11 10 7 6 6 6 6 6 6 7 9 10 11 13 14 2 3 3 4 9 9 7 5 8 6 4 4 6 5 8 9 9 12 11 9 9 7 11 12 7 10 11 11 13 14
9 8 7 6 6 6 6 5 6 7 8 8 10 12 3 1 2 4 2 7 6 4 4 8 9 5 8 9 15 19 14 13 15 17 16 15 12 13 11 11 13 12 13 13 13
9 9 7 6 6 7 6 5 6 6 6 7 9 10 2 4 1 2 4 3 2 2 5 6 8 16 13 6 8 14 23 17 11 13 12 14 9 4 6 10 11 11 10 11 11
9 8 6 6 7 7 7 6 6 6 5 6 7 6 1 1 2 3 5 3 2 5 5 7 12 4 9 19 20 17 15 11 8 9 10 6 12 8 8 8 9 9 9 9 9
8 7 6 6 7 7 6 6 6 6 5 6 7 2 2 2 3 5 4 1 2 1 5 17 19 14 6 19 7 7 6 4 4 2 3 1 5 7 6 7 7 7 7 7 6
7 7 6 6 6 5 6 6 7 6 5 5 2 2 3 2 1 3 6 3 4 5 6 10 8 8 9 12 6 2 5 4 6 1 3 1 7 10 5 6 7 5 6 5 5
7 6 5 5 5 6 7 8 3 3 1 2 2 1 0 1 1 3 6 4 3 7 5 2 4 5 7 6 4 8 6 4 5 4 2 7 8 5 4 7 7 6 5 5 4
6 5 4 4 6 7 9 1 1 1 1 3 4 3 3 3 1 4 4 6 3 2 4 1 5 5 17 12 1 11 12 12 7 3 6 7 8 9 6 7 7 6 6 4 4
6 5 3 4 6 9 3 3 6 2 4 2 5 5 6 3 3 4 8 4 2 4 4 3 3 3 4 9 14 14 17 8 7 3 2 8 5 6 6 6 7 8 7 6 4
6 5 2 4 9 2 2 4 5 6 1 4 3 3 0 5 2 2 8 4 2 3 3 2 3 13 14 14 16 11 6 12 7 8 6 10 4 8 5 6 7 8 6 5 4
5 4 2 4 2 4 2 4 12 6 2 4 2 1 2 1 3 2 2 1 2 5 4 6 5 14 13 9 6 4 4 16 18 8 3 6 2 7 7 8 10 10 7 6 5
4 4 2 2 4 1 4 15 8 2 3 3 4 1 1 2 1 7 5 3 3 3 4 4 5 5 5 5 3 6 12 12 10 4 8 8 4 5 7 9 9 8 6 6 4
3 2 3 3 3 1 14 2 1 1 1 3 3 2 3 7 4 5 5 8 2 6 10 4 3 6 5 12 13 20 16 11 4 1 3 4 3 4 5 3 7 6 6 5 4
2 3 4 3 1 9 12 1 2 3 2 3 3 4 7 7 6 8 6 9 4 2 3 3 4 6 12 14 5 5 9 3 4 4 2 2 4 3 2 2 3 7 8 6 5
2 4 2 3 7 10 5 3 2 1 2 1 1 6 5 4 6 6 3 4 9 3 2 1 3 7 5 1 5 12 1 5 8 4 2 3 3 3 3 4 4 7 9 8 7
4 3 1 5 5 3 4 2 1 1 2 3 4 5 3 4 3 3 6 5 5 6 2 2 3 1 8 2 1 5 3 1 4 2 3 2 2 4 2 3 4 7 7 7 7
3 3 4 4 5 4 3 1 2 3 5 2 4 2 3 5 2 3 5 5 5 8 3 2 3 3 3 2 11 4 5 2 2 2 3 2 3 3 3 5 6 7 6 7 6
2 3 6 3 3 4 2 1 2 4 0 5 4 4 4 2 4 3 4 3 5 5 6 1 1 2 1 6 4 1 2 5 3 3 3 2 3 5 7 2 3 5 6 8 7
3 3 4 1 2 1 1 1 4 5 9 7 5 7 5 5 4 3 3 4 8 2 3 3 2 3 4 3 8 7 4 3 3 3 3 2 4 6 6 5 6 1 6 7 6
3 2 5 2 1 1 0 4 7 6 7 5 5 7 4 3 3 3 2 2 7 5 2 1 4 3 4 4 4 7 5 3 5 2 4 3 3 4 5 5 5 3 6 6 5
3 2 3 4 2 1 3 3 4 6 6 5 4 4 3 4 5 2 2 3 3 4 8 6 4 3 3 4 4 8 13 11 6 4 4 4 3 7 9 7 3 3 6 7 5
3 2 1 2 3 2 3 2 3 4 4 9 5 7 3 3 2 3 2 3 7 7 5 4 6 12 14 15 16 16 15 14 12 5 5 4 5 8 8 7 2 2 4 3 2
3 3 2 3 2 2 3 4 4 3 5 5 8 10 9 4 2 1 2 5 4 5 4 4 5 9 13 14 14 16 15 13 8 6 6 5 5 3 4 3 1 3 3 2 3
3 3 3 3 2 2 2 3 3 4 8 5 4 4 8 4 11 14 15 11 6 3 3 3 4 3 3 12 5 5 11 9 4 9 4 7 7 6 6 3 2 3 3 2 3
Wind_Direction
330 334 336 325 315 311 318 321 330 330 333 328 323 327 328 325 328 329 238 127 143 157 142 143 147 148 120 87 62 141 94 90 105 152 121 141 114 59 63 75 48 54 64 82 80
337 337 334 323 320 328 329 336 337 340 336 328 327 327 326 326 337 245 151 147 139 153 148 158 150 141 78 61 38 34 74 64 37 113 123 100 100 109 97 84 80 77 72 73 77
344 330 330 314 330 334 334 342 335 337 334 330 325 327 326 331 277 322 350 184 157 164 160 152 128 108 73 55 28 41 88 104 83 116 116 103 71 93 104 61 61 89 82 79 77
334 324 320 321 349 340 335 339 334 341 336 324 329 329 332 2 79 325 359 166 169 174 151 132 136 97 85 67 50 102 64 110 124 118 103 87 98 86 84 97 99 96 103 94 84
330 322 328 347 353 337 329 336 342 344 328 326 334 334 346 56 43 343 82 136 169 176 165 144 125 112 103 104 85 96 97 88 108 105 100 114 92 94 95 101 99 94 86 86 86
335 334 345 344 334 321 309 332 334 324 319 330 331 343 355 87 216 36 108 97 344 187 141 154 124 113 84 67 56 110 114 110 104 109 126 110 109 101 89 114 101 98 99 95 98
341 332 329 322 319 306 312 328 317 307 312 319 324 341 315 92 140 29 129 91 336 359 68 89 138 75 113 98 120 114 102 99 97 107 123 113 60 86 123 108 102 104 104 103 91
334 318 323 313 308 307 325 325 309 299 310 302 313 337 246 204 269 293 168 213 271 275 75 110 89 86 88 124 126 116 113 126 165 8 94 294 116 124 135 131 122 110 112 119 109
325 316 317 305 311 320 327 315 299 300 292 286 303 312 127 305 262 239 172 132 102 69 80 113 68 92 140 129 119 106 160 139 175 296 125 22 138 152 164 156 126 131 143 130 119
320 309 301 314 321 328 323 313 302 292 290 327 270 227 261 30 191 192 188 180 108 111 98 84 91 125 153 198 243 176 151 166 170 168 168 119 131 135 135 149 138 149 160 156 153
310 298 307 322 324 330 325 46 297 189 133 258 299 267 298 309 199 182 156 126 117 134 184 99 200 196 197 207 356 139 141 142 122 74 137 133 129 146 129 138 155 165 177 175 188
306 286 309 314 324 332 31 109 107 316 309 250 254 268 251 250 142 185 160 162 161 192 138 171 151 272 125 152 129 133 130 123 137 116 109 158 137 157 159 173 171 178 186 184 181
294 273 300 314 326 42 57 128 183 350 252 300 224 258 9 172 150 186 181 152 88 131 149 142 76 133 128 120 126 149 151 170 147 135 113 159 165 176 172 160 175 186 173 178 195
293 270 269 322 74 354 136 4 298 206 70 327 353 83 109 121 72 357 196 147 91 121 73 58 101 134 141 140 190 165 241 157 147 160 160 199 202 200 179 189 196 176 182 179 170
281 249 216 299 312 353 334 336 111 195 113 318 307 15 104 44 315 36 12 59 96 127 203 91 133 145 84 12 63 83 120 131 140 111 140 192 265 126 180 214 215 169 161 164 143
258 211 187 254 279 299 344 83 137 58 86 353 310 1 110 25 34 336 36 51 93 67 69 68 22 22 51 35 99 126 115 113 103 92 243 162 262 148 184 184 134 151 145 148 135
224 183 193 230 285 332 346 146 26 81 324 0 27 45 85 25 50 27 38 47 39 111 85 60 38 104 114 90 138 177 168 151 229 217 303 134 210 352 212 82 137 155 140 128 117
170 198 202 273 298 320 1 52 66 350 299 20 111 79 74 16 45 20 66 58 43 38 117 155 167 3 1 259 202 176 216 291 298 277 44 159 236 84 31 79 101 122 128 117 110
149 164 116 13 66 45 65 67 223 323 308 177 93 64 62 58 91 66 40 28 24 358 61 127 115 247 40 57 225 154 221 71 105 96 230 142 158 154 90 80 134 143 138 125 122
163 132 37 97 47 52 73 233 308 261 328 61 90 33 80 12 67 58 29 8 358 24 275 91 137 17 21 259 53 33 111 272 44 273 289 114 359 330 277 215 184 194 168 137 137
140 80 359 123 26 51 86 211 317 350 75 30 88 96 81 84 64 68 24 64 7 355 33 52 5 81 300 19 349 33 68 64 95 347 335 7 75 358 326 319 257 230 175 160 164
101 83 356 41 50 21 100 190 345 349 33 65 78 65 52 43 61 75 71 11 349 307 40 20 78 68 68 47 79 64 49 22 352 91 49 7 75 0 336 342 326 143 150 160 152
78 93 22 91 128 71 4 85 48 33 28 44 62 50 50 72 94 57 57 85 24 50 48 91 34 152 146 166 80 48 26 72 94 101 40 354 57 35 35 24 21 132 144 146 163
104 87 15 56 33 137 116 58 98 46 58 53 83 102 99 61 42 104 66 18 54 85 59 86 62 359 339 54 78 78 48 47 63 59 96 54 27 27 358 348 42 116 153 164 176
28 94 341 75 45 68 59 47 82 47 55 31 57 43 55 90 64 66 25 357 71 18 53 70 69 88 77 80 83 74 59 49 57 57 42 25 351 7 352 340 343 159 159 172 212
125 142 77 74 319 101 11 34 115 143 26 31 95 67 64 80 30 3 345 26 32 25 62 29 120 101 84 75 78 72 54 43 45 31 55 27 44 345 359 26 209 179 196 231 276
101 92 92 1 25 111 44 137 123 113 58 63 119 91 53 36 97 90 84 77 64 56 76 82 134 120 169 13 1 39 24 24 61 47 8 21 360 344 341 339 257 208 231 296 329